period_start,C,m1,H,J0,J1,J2,J3,J4,J5,JA,JB,JC,JD,JJ,JK,JN,#
2015-01-12 00:02:44,0.30,1.51,0.00,23.51,28.09,30.87,4.81,26.98,1024.06,2028.00,2793.60,2891.99,3132.43,349.54,349.15,8.05,0000 0000 0000 0000 000000
2015-01-12 00:07:46,0.30,1.52,0.00,23.53,28.09,30.87,4.78,26.95,1024.15,2028.00,2790.42,2889.62,3129.87,350.32,349.95,8.08,0000 0000 0000 0000 000000
2015-01-12 00:12:47,0.32,1.53,0.00,23.55,28.10,30.87,4.77,26.88,1024.17,2028.00,2787.29,2887.21,3127.29,349.58,349.28,8.11,0000 0000 0000 0000 000000
2015-01-12 00:17:49,0.30,1.54,0.00,23.56,28.10,30.87,4.83,27.04,1024.24,2028.00,2784.16,2884.76,3124.60,350.36,350.00,8.14,0000 0000 0000 0000 000000
2015-01-12 00:22:50,0.31,1.55,0.00,23.59,28.10,30.85,4.75,26.87,1023.98,2028.00,2781.02,2882.35,3122.03,349.71,349.21,8.17,0000 0000 0000 0000 000000
2015-01-12 00:27:52,0.31,1.56,0.00,23.60,28.10,30.86,4.79,27.10,1023.95,2028.00,2777.90,2880.03,3119.43,349.65,349.13,8.20,0000 0000 0000 0000 000000
2015-01-12 00:32:53,0.30,1.56,0.00,23.60,28.10,30.89,4.83,27.10,1023.99,2028.00,2774.85,2877.83,3116.87,349.99,349.38,8.23,0000 0000 0000 0000 000000
2015-01-12 00:37:54,0.29,1.57,0.00,23.55,28.10,30.87,4.76,27.19,1024.15,2028.00,2771.84,2875.51,3114.37,350.23,349.73,8.26,0000 0000 0000 0000 000000
2015-01-12 00:42:55,0.30,1.58,0.00,23.57,28.10,30.86,4.85,27.30,1024.08,2028.00,2768.81,2873.16,3111.80,350.50,349.89,8.29,0000 0000 0000 0000 000000
2015-01-12 00:47:57,0.28,1.59,0.00,23.57,28.10,30.89,4.77,27.28,1024.13,2028.00,2765.92,2870.93,3109.35,349.63,349.51,8.32,0000 0000 0000 0000 000000
2015-01-12 00:52:58,0.29,1.60,0.00,23.57,28.10,30.89,4.84,27.22,1024.40,2028.00,2763.00,2868.70,3106.91,350.30,350.06,8.35,0000 0000 0000 0000 000000
2015-01-12 00:58:00,0.28,1.61,0.00,23.56,28.10,30.89,4.80,27.27,1024.43,2027.99,2760.15,2866.45,3104.47,350.11,349.70,8.38,0000 0000 0000 0000 000000
2015-01-12 01:03:01,0.29,1.62,0.00,23.55,28.10,30.89,4.86,27.27,1024.39,2027.98,2757.17,2864.21,3101.99,349.90,349.59,8.41,0000 0000 0000 0000 000000
2015-01-12 01:08:03,0.28,1.63,0.00,23.55,28.10,30.87,4.78,27.19,1024.30,2027.99,2754.32,2862.05,3099.64,349.80,349.51,8.43,0000 0000 0000 0000 000000
2015-01-12 01:13:04,0.27,1.63,0.00,23.52,28.09,30.86,4.82,27.30,1024.22,2027.99,2751.56,2859.86,3097.30,349.88,349.53,8.46,0000 0000 0000 0000 000000
2015-01-12 01:18:05,0.28,1.64,0.00,23.52,28.09,30.89,4.74,27.11,1024.37,2027.99,2748.87,2857.68,3094.97,349.77,349.70,8.49,0000 0000 0000 0000 000000
2015-01-12 01:23:07,0.28,1.65,0.00,23.52,28.09,30.91,4.84,27.07,1024.43,2027.99,2746.07,2855.55,3092.64,349.90,349.65,8.52,0000 0000 0000 0000 000000
2015-01-12 01:28:08,0.28,1.66,0.00,23.52,28.08,30.91,4.80,27.05,1024.43,2027.99,2743.25,2853.42,3090.32,349.88,349.87,8.55,0000 0000 0000 0000 000000
2015-01-12 01:33:09,0.29,1.67,0.00,23.54,28.08,30.89,4.88,27.04,1024.43,2027.98,2740.43,2851.28,3088.03,350.38,350.12,8.58,0000 0000 0000 0000 000000
2015-01-12 01:38:10,0.28,1.68,0.00,23.52,28.07,30.87,4.79,27.09,1024.43,2027.99,2737.63,2849.10,3085.67,349.90,349.53,8.61,0000 0000 0000 0000 000000
2015-01-12 01:43:12,0.27,1.68,0.00,23.53,28.07,30.86,4.81,27.19,1024.42,2027.99,2734.92,2847.08,3083.46,349.99,349.63,8.64,0000 0000 0000 0000 000000
2015-01-12 01:48:13,0.27,1.69,0.00,23.53,28.07,30.88,4.83,27.02,1024.39,2027.99,2732.30,2845.02,3081.29,349.53,349.23,8.67,0000 0000 0000 0000 000000
2015-01-12 01:53:14,0.27,1.70,0.00,23.54,28.07,30.87,4.82,26.80,1024.40,2027.98,2729.65,2842.95,3079.08,350.21,349.56,8.70,0000 0000 0000 0000 000000
2015-01-12 01:58:16,0.27,1.71,0.00,23.55,28.07,30.87,4.84,27.02,1024.28,2027.98,2726.99,2840.92,3076.89,349.99,349.54,8.73,0000 0000 0000 0000 000000
2015-01-12 02:03:17,0.28,1.72,0.00,23.54,28.07,30.88,4.78,27.01,1024.12,2027.97,2724.23,2838.77,3074.54,349.94,349.55,8.76,0000 0000 0000 0000 000000
2015-01-12 02:08:19,0.27,1.72,0.00,23.52,28.07,30.89,4.84,27.02,1024.07,2027.98,2721.47,2836.67,3072.32,349.50,349.19,8.79,0000 0000 0000 0000 000000
2015-01-12 02:13:21,0.26,1.73,0.00,23.54,28.07,30.89,4.85,26.95,1024.08,2027.98,2718.79,2834.62,3070.20,349.84,349.47,8.82,0000 0000 0000 0000 000000
2015-01-12 02:18:22,0.28,1.74,0.00,23.52,28.07,30.92,4.85,26.99,1023.96,2027.98,2715.99,2832.51,3067.92,349.94,349.53,8.84,0000 0000 0000 0000 000000
2015-01-12 02:23:24,0.27,1.75,0.00,23.52,28.07,30.92,4.87,27.04,1023.97,2027.99,2713.36,2830.47,3065.67,350.15,349.53,8.87,0000 0000 0000 0000 000000
2015-01-12 02:28:25,0.27,1.76,0.00,23.50,28.07,30.90,4.81,26.88,1024.28,2027.99,2710.64,2828.39,3063.47,349.81,349.64,8.90,0000 0000 0000 0000 000000
2015-01-12 02:33:26,0.26,1.76,0.00,23.52,28.07,30.89,4.79,26.92,1024.37,2027.98,2708.06,2826.38,3061.31,349.91,349.68,8.93,0000 0000 0000 0000 000000
2015-01-12 02:38:27,0.28,1.77,0.00,23.49,28.08,30.88,4.84,26.95,1024.12,2027.98,2705.42,2824.36,3059.12,349.89,349.57,8.96,0000 0000 0000 0000 000000
2015-01-12 02:43:29,0.25,1.78,0.00,23.54,28.08,30.91,4.84,27.06,1023.98,2027.98,2702.83,2822.40,3056.97,350.14,349.61,8.99,0000 0000 0000 0000 000000
2015-01-12 02:48:30,0.25,1.79,0.00,23.53,28.09,30.91,4.79,27.06,1023.97,2027.98,2700.36,2820.50,3054.96,350.27,349.94,9.02,0000 0000 0000 0000 000000
2015-01-12 02:53:32,0.25,1.79,0.00,23.52,28.09,30.92,4.78,26.93,1024.11,2027.98,2697.85,2818.61,3052.93,350.09,349.66,9.05,0000 0000 0000 0000 000000
2015-01-12 02:58:33,0.27,1.80,0.00,23.52,28.10,30.89,4.90,27.01,1024.41,2027.98,2695.21,2816.59,3050.71,350.74,350.44,9.08,0000 0000 0000 0000 000000
2015-01-12 03:03:34,0.26,1.81,0.00,23.54,28.10,30.89,4.84,26.92,1024.34,2027.97,2692.54,2814.62,3048.49,349.91,349.94,9.11,0000 0000 0000 0000 000000
2015-01-12 03:08:35,0.27,1.82,0.00,23.56,28.10,30.86,4.88,26.88,1024.34,2027.96,2689.93,2812.57,3046.25,350.45,349.97,9.14,0000 0000 0000 0000 000000
2015-01-12 03:13:36,0.27,1.83,0.00,23.54,28.10,30.87,4.76,26.88,1024.33,2027.95,2687.34,2810.54,3044.08,349.80,349.71,9.17,0000 0000 0000 0000 000000
2015-01-12 03:18:37,0.27,1.83,0.00,23.56,28.10,30.89,4.81,27.00,1023.96,2027.94,2684.71,2808.42,3041.77,350.08,349.54,9.20,0000 0000 0000 0000 000000
2015-01-12 03:23:39,0.26,1.84,0.00,23.56,28.10,30.87,4.87,27.07,1023.95,2027.91,2682.03,2806.37,3039.53,350.51,350.04,9.23,0000 0000 0000 0000 000000
2015-01-12 03:28:41,0.28,1.85,0.00,23.55,28.10,30.89,4.85,27.13,1024.02,2027.92,2679.39,2804.33,3037.29,349.74,349.32,9.25,0000 0000 0000 0000 000000
2015-01-12 03:33:42,0.27,1.86,0.00,23.54,28.10,30.88,4.80,27.22,1023.95,2027.86,2676.66,2802.25,3035.12,349.49,349.02,9.28,0000 0000 0000 0000 000000
2015-01-12 03:38:43,0.27,1.87,0.00,23.50,28.10,30.89,4.84,27.13,1023.94,2027.77,2673.84,2800.14,3032.75,350.17,349.77,9.31,0000 0000 0000 0000 000000
2015-01-12 03:43:45,0.29,1.88,0.00,23.52,28.10,30.91,4.92,27.12,1023.94,2027.71,2671.07,2797.97,3030.40,350.65,350.10,9.34,0000 0000 0000 0000 000000
2015-01-12 03:48:46,0.30,1.88,0.00,23.52,28.10,30.92,4.78,27.01,1024.04,2027.84,2668.35,2795.88,3028.18,350.02,349.44,9.37,0000 0000 0000 0000 000000
2015-01-12 03:53:47,0.29,1.89,0.00,23.54,28.10,30.95,4.82,26.82,1024.18,2027.90,2665.60,2793.77,3025.94,349.56,349.12,9.40,0000 0000 0000 0000 000000
2015-01-12 03:58:49,0.29,1.90,0.00,23.53,28.10,30.95,4.76,26.78,1023.99,2027.94,2662.88,2791.72,3023.66,349.56,349.10,9.43,0000 0000 0000 0000 000000
2015-01-12 04:03:50,0.27,1.91,0.00,23.49,28.10,30.92,4.77,26.85,1023.95,2027.88,2660.08,2789.52,3021.32,349.78,349.29,9.46,0000 0000 0000 0000 000000
2015-01-12 04:08:51,0.25,1.92,0.00,23.52,28.10,30.92,4.87,26.99,1024.06,2027.62,2657.21,2787.30,3018.97,350.16,349.71,9.49,0000 0000 0000 0000 000000
2015-01-12 04:13:53,0.30,1.93,0.00,23.52,28.10,30.92,4.80,26.91,1023.96,2027.65,2654.39,2785.14,3016.65,349.40,349.02,9.52,0000 0000 0000 0000 000000
2015-01-12 04:18:54,0.31,1.94,0.00,23.50,28.10,30.92,4.76,26.90,1024.08,2027.71,2651.60,2783.04,3014.31,350.32,349.91,9.55,0000 0000 0000 0000 000000
2015-01-12 04:23:55,0.29,1.94,0.00,23.50,28.10,30.91,4.90,27.01,1024.24,2027.66,2648.82,2780.86,3012.03,350.55,350.07,9.58,0000 0000 0000 0000 000000
2015-01-12 04:28:57,0.28,1.95,0.00,23.53,28.10,30.91,4.82,26.98,1024.41,2027.61,2646.07,2778.74,3009.70,350.19,349.96,9.61,0000 0000 0000 0000 000000
2015-01-12 04:33:58,0.27,1.96,0.00,23.56,28.10,30.91,4.81,26.94,1024.43,2027.56,2643.34,2776.56,3007.45,349.72,349.46,9.64,0000 0000 0000 0000 000000
2015-01-12 04:39:00,0.25,1.97,0.00,23.54,28.10,30.93,4.88,27.08,1024.30,2027.36,2640.43,2774.34,3005.14,349.87,349.55,9.66,0000 0000 0000 0000 000000
2015-01-12 04:44:01,0.30,1.98,0.00,23.55,28.10,30.90,4.88,27.04,1024.35,2027.20,2637.57,2772.13,3002.74,350.09,349.60,9.69,0000 0000 0000 0000 000000
2015-01-12 04:49:03,0.30,1.99,0.00,23.54,28.10,30.87,4.84,26.93,1024.32,2027.19,2634.78,2769.94,3000.40,350.18,349.87,9.72,0000 0000 0000 0000 000000
2015-01-12 04:54:04,0.30,1.99,0.00,23.54,28.11,30.90,4.84,26.93,1024.35,2027.20,2631.98,2767.76,2998.04,350.12,349.78,9.75,0000 0000 0000 0000 000000
2015-01-12 04:59:05,0.30,2.00,0.00,23.55,28.11,30.89,4.82,26.89,1024.43,2027.30,2629.23,2765.65,2995.71,349.83,349.44,9.78,0000 0000 0000 0000 000000
2015-01-12 05:04:06,0.31,2.01,0.00,23.53,28.11,30.89,4.83,27.04,1024.44,2027.26,2626.29,2763.42,2993.33,349.86,349.90,9.81,0000 0000 0000 0000 000000
2015-01-12 05:09:07,0.31,2.02,0.00,23.58,28.11,30.89,4.76,26.94,1024.45,2027.26,2623.47,2761.22,2991.03,349.48,349.30,9.84,0000 0000 0000 0000 000000
2015-01-12 05:14:08,0.28,2.03,0.00,23.58,28.11,30.89,4.82,26.88,1024.66,2027.25,2620.80,2759.06,2988.62,349.60,349.30,9.87,0000 0000 0000 0000 000000
2015-01-12 05:19:10,0.30,2.04,0.00,23.58,28.12,30.89,4.82,26.99,1024.74,2027.25,2617.95,2756.85,2986.27,349.98,349.77,9.90,0000 0000 0000 0000 000000
2015-01-12 05:24:11,0.27,2.05,0.00,23.58,28.12,30.88,4.86,26.92,1024.87,2027.09,2615.09,2754.63,2983.90,350.19,350.00,9.93,0000 0000 0000 0000 000000
2015-01-12 05:29:12,0.31,2.06,0.00,23.61,28.12,30.88,4.81,26.91,1024.92,2027.06,2612.27,2752.45,2981.48,350.47,350.27,9.96,0000 0000 0000 0000 000000
2015-01-12 05:34:14,0.28,2.07,0.00,23.59,28.12,30.88,4.92,26.96,1024.92,2027.06,2609.54,2750.44,2979.21,350.97,350.68,9.99,0000 0000 0000 0000 000000
2015-01-12 05:39:15,0.31,2.07,0.00,23.63,28.12,30.88,4.84,27.06,1024.93,2027.04,2606.72,2748.30,2976.81,350.35,350.13,10.02,0000 0000 0000 0000 000000
2015-01-12 05:44:17,0.29,2.08,0.00,23.62,28.12,30.88,4.78,26.91,1025.10,2027.00,2603.92,2746.09,2974.38,350.16,350.13,10.05,0000 0000 0000 0000 000000
2015-01-12 05:49:18,0.30,2.09,0.00,23.63,28.12,30.89,4.85,26.90,1025.02,2027.01,2601.19,2744.05,2972.15,350.10,349.92,10.07,0000 0000 0000 0000 000000
2015-01-12 05:54:19,0.29,2.10,0.00,23.62,28.12,30.88,4.78,26.91,1024.96,2027.03,2598.46,2741.97,2969.92,349.44,349.22,10.10,0000 0000 0000 0000 000000
2015-01-12 05:59:21,0.30,2.11,0.00,23.63,28.12,30.89,4.79,26.93,1025.11,2027.03,2595.69,2739.78,2967.58,350.44,350.06,10.13,0000 0000 0000 0000 000000
2015-01-12 06:04:22,0.29,2.12,0.00,23.65,28.12,30.88,4.86,26.99,1025.25,2027.02,2592.86,2737.61,2965.28,350.23,350.18,10.16,0000 0000 0000 0000 000000
2015-01-12 06:09:24,0.30,2.13,0.00,23.65,28.12,30.90,4.82,26.93,1024.97,2027.02,2590.16,2735.54,2962.97,349.57,349.22,10.19,0000 0000 0000 0000 000000
2015-01-12 06:14:25,0.31,2.14,0.00,23.66,28.12,30.87,4.76,26.97,1024.93,2027.00,2587.40,2733.34,2960.56,349.82,349.75,10.22,0000 0000 0000 0000 000000
2015-01-12 06:19:26,0.28,2.15,0.00,23.64,28.12,30.87,4.79,26.96,1024.92,2027.00,2584.68,2731.26,2958.29,349.89,349.76,10.25,0000 0000 0000 0000 000000
2015-01-12 06:24:27,0.31,2.15,0.00,23.67,28.12,30.87,4.84,26.93,1024.92,2027.00,2581.95,2729.14,2956.02,350.27,350.00,10.28,0000 0000 0000 0000 000000
2015-01-12 06:29:29,0.31,2.16,0.00,23.68,28.12,30.89,4.89,27.11,1024.92,2027.00,2579.13,2726.94,2953.68,350.05,349.84,10.31,0000 0000 0000 0000 000000
2015-01-12 06:34:30,0.31,2.17,0.00,23.67,28.12,30.88,4.82,27.07,1024.92,2027.00,2576.32,2724.79,2951.34,349.98,349.65,10.34,0000 0000 0000 0000 000000
2015-01-12 06:39:31,0.31,2.18,0.00,23.68,28.12,30.87,4.81,27.12,1024.92,2027.00,2573.48,2722.59,2948.95,350.22,350.15,10.37,0000 0000 0000 0000 000000
2015-01-12 06:44:33,0.28,2.19,0.00,23.65,28.12,30.87,4.81,26.96,1024.93,2027.00,2570.76,2720.53,2946.69,350.25,349.97,10.40,0000 0000 0000 0000 000000
2015-01-12 06:49:34,0.29,2.20,0.00,23.70,28.12,30.88,4.86,26.99,1024.92,2027.00,2568.10,2718.42,2944.51,349.76,349.43,10.43,0000 0000 0000 0000 000000
2015-01-12 06:54:35,0.29,2.21,0.00,23.65,28.12,30.90,4.78,26.91,1025.11,2027.00,2565.34,2716.38,2942.41,349.59,349.10,10.46,0000 0000 0000 0000 000000
2015-01-12 06:59:36,0.30,2.22,0.00,23.65,28.12,30.89,4.83,26.89,1025.40,2027.00,2562.65,2714.27,2940.12,349.81,349.98,10.49,0000 0000 0000 0000 000000
2015-01-12 07:04:38,0.29,2.23,0.00,23.67,28.12,30.90,4.79,26.96,1025.41,2027.00,2560.05,2712.21,2937.91,349.36,349.27,10.51,0000 0000 0000 0000 000000
2015-01-12 07:09:39,0.31,2.23,0.00,23.68,28.12,30.90,4.82,27.00,1025.42,2027.00,2557.43,2710.03,2935.62,350.36,350.15,10.54,0000 0000 0000 0000 000000
2015-01-12 07:14:40,0.29,2.24,0.00,23.69,28.12,30.90,4.84,26.83,1025.42,2027.00,2554.64,2707.94,2933.30,350.27,350.33,10.57,0000 0000 0000 0000 000000
2015-01-12 07:19:42,0.30,2.25,0.00,23.69,28.12,30.89,4.77,26.98,1025.42,2027.00,2552.03,2705.91,2931.11,350.30,350.17,10.60,0000 0000 0000 0000 000000
2015-01-12 07:24:43,0.29,2.26,0.00,23.68,28.12,30.89,4.82,26.93,1025.44,2027.00,2549.30,2703.82,2928.82,349.81,349.62,10.63,0000 0000 0000 0000 000000
2015-01-12 07:29:45,0.30,2.27,0.00,23.66,28.12,30.89,4.79,26.78,1025.54,2027.00,2546.71,2701.72,2926.56,349.89,349.96,10.66,0000 0000 0000 0000 000000
2015-01-12 07:34:46,0.31,2.28,0.00,23.69,28.11,30.90,4.85,27.09,1025.61,2027.00,2543.99,2699.62,2924.24,350.02,349.96,10.69,0000 0000 0000 0000 000000
2015-01-12 07:39:47,0.31,2.29,0.00,23.70,28.10,30.87,4.82,26.93,1025.76,2027.00,2541.22,2697.47,2921.91,350.03,350.03,10.72,0000 0000 0000 0000 000000
2015-01-12 07:44:48,0.29,2.30,0.00,23.69,28.10,30.87,4.84,27.07,1025.62,2027.00,2538.51,2695.37,2919.69,350.37,350.24,10.75,0000 0000 0000 0000 000000
2015-01-12 07:49:50,0.30,2.31,0.00,23.67,28.10,30.87,4.78,26.83,1025.54,2027.00,2535.84,2693.29,2917.48,349.68,349.56,10.78,0000 0000 0000 0000 000000
2015-01-12 07:54:51,0.31,2.31,0.00,23.68,28.10,30.86,4.86,27.16,1025.65,2027.00,2533.12,2691.19,2915.22,349.78,349.80,10.81,0000 0000 0000 0000 000000
2015-01-12 07:59:52,0.31,2.32,0.00,23.70,28.10,30.87,4.82,27.00,1025.47,2027.00,2530.40,2689.10,2912.96,349.91,349.62,10.84,0000 0000 0000 0000 000000
2015-01-12 08:04:53,0.29,2.33,0.00,23.69,28.10,30.87,4.80,27.05,1025.44,2027.00,2527.72,2687.08,2910.68,349.53,349.40,10.87,0000 0000 0000 0000 000000
2015-01-12 08:09:54,0.32,2.34,0.00,23.67,28.10,30.88,4.83,27.01,1025.42,2027.00,2524.92,2685.02,2908.39,350.49,350.42,10.89,0000 0000 0000 0000 000000
2015-01-12 08:14:55,0.30,2.35,0.00,23.67,28.10,30.87,4.77,27.10,1025.56,2027.00,2522.27,2682.95,2906.18,350.40,350.47,10.92,0000 0000 0000 0000 000000
2015-01-12 08:19:56,0.31,2.36,0.00,23.69,28.09,30.88,4.80,27.15,1025.58,2027.00,2519.60,2680.87,2903.89,350.10,349.94,10.95,0000 0000 0000 0000 000000
2015-01-12 08:24:58,0.31,2.37,0.00,23.70,28.07,30.85,4.85,27.28,1025.45,2027.00,2516.87,2678.79,2901.63,349.94,349.75,10.98,0000 0000 0000 0000 000000
2015-01-12 08:29:59,0.31,2.38,0.00,23.72,28.07,30.84,4.76,27.06,1025.41,2027.00,2514.15,2676.64,2899.33,349.71,349.59,11.01,0000 0000 0000 0000 000000
2015-01-12 08:35:00,0.31,2.39,0.00,23.71,28.07,30.84,4.85,26.88,1025.43,2027.00,2511.38,2674.50,2897.04,350.50,350.23,11.04,0000 0000 0000 0000 000000
2015-01-12 08:40:01,0.32,2.40,0.00,23.64,28.07,30.85,4.75,27.07,1025.41,2027.00,2508.48,2672.35,2894.72,349.39,349.30,11.07,0000 0000 0000 0000 000000
2015-01-12 08:45:03,0.30,2.40,0.00,23.68,28.07,30.86,4.86,27.01,1025.43,2027.00,2505.82,2670.22,2892.48,350.42,350.28,11.10,0000 0000 0000 0000 000000
2015-01-12 08:50:04,0.29,2.42,0.00,23.69,28.06,30.85,4.85,26.91,1025.42,2027.00,2503.25,2668.23,2890.25,350.01,349.87,11.13,0000 0000 0000 0000 000000
2015-01-12 08:55:05,0.30,2.42,0.00,23.71,28.05,30.85,4.81,27.00,1025.42,2027.01,2500.62,2666.20,2888.10,349.78,349.68,11.16,0000 0000 0000 0000 000000
2015-01-12 09:00:06,0.31,2.43,0.00,23.69,28.05,30.85,4.78,26.99,1025.42,2027.00,2497.92,2664.08,2885.83,350.36,350.05,11.19,0000 0000 0000 0000 000000
2015-01-12 09:05:08,0.29,2.44,0.00,23.68,28.05,30.84,4.83,26.77,1025.41,2027.00,2495.45,2662.06,2883.62,350.22,350.26,11.22,0000 0000 0000 0000 000000
2015-01-12 09:10:09,0.29,2.45,0.00,23.69,28.05,30.84,4.85,26.96,1025.41,2027.00,2492.99,2660.07,2881.47,350.06,349.64,11.25,0000 0000 0000 0000 000000
2015-01-12 09:15:10,0.28,2.46,0.00,23.65,28.05,30.83,4.75,26.71,1025.41,2027.00,2490.42,2658.07,2879.41,349.33,349.26,11.28,0000 0000 0000 0000 000000
2015-01-12 09:20:12,0.29,2.47,0.00,23.69,28.05,30.84,4.79,26.88,1025.41,2027.00,2487.87,2656.14,2877.38,350.32,350.27,11.31,0000 0000 0000 0000 000000
2015-01-12 09:25:13,0.30,2.48,0.00,23.69,28.04,30.84,4.82,26.98,1025.41,2027.01,2485.34,2654.13,2875.27,350.11,349.89,11.33,0000 0000 0000 0000 000000
2015-01-12 09:30:15,0.29,2.49,0.00,23.70,28.03,30.82,4.75,27.11,1025.42,2027.00,2482.78,2652.14,2873.16,349.22,349.12,11.36,0000 0000 0000 0000 000000
2015-01-12 09:35:16,0.28,2.49,0.00,23.70,28.03,30.81,4.78,26.88,1025.59,2027.02,2480.28,2650.21,2871.11,349.99,349.81,11.39,0000 0000 0000 0000 000000
2015-01-12 09:40:17,0.33,2.50,0.00,23.71,28.02,30.82,4.87,27.27,1025.87,2027.01,2477.50,2648.12,2868.91,350.56,350.58,11.42,0000 0000 0000 0000 000000
2015-01-12 09:45:18,0.29,2.51,0.00,23.72,28.02,30.79,4.80,26.97,1025.87,2027.01,2474.98,2646.09,2866.71,350.00,349.93,11.45,0000 0000 0000 0000 000000
2015-01-12 09:50:20,0.30,2.52,0.00,23.72,28.02,30.79,4.82,26.93,1025.72,2027.03,2472.41,2644.10,2864.56,350.07,349.97,11.48,0000 0000 0000 0000 000000
2015-01-12 09:55:21,0.30,2.53,0.00,23.69,28.02,30.80,4.75,26.88,1025.43,2027.02,2469.82,2642.03,2862.34,350.50,350.41,11.51,0000 0000 0000 0000 000000
2015-01-12 10:00:22,0.27,2.54,0.00,23.71,28.02,30.81,4.77,27.04,1025.41,2027.02,2467.38,2640.16,2860.31,349.80,349.73,11.54,0000 0000 0000 0000 000000
2015-01-12 10:05:23,0.27,2.55,0.00,23.70,28.02,30.80,4.74,26.93,1025.42,2027.06,2465.03,2638.36,2858.34,349.44,349.32,11.57,0000 0000 0000 0000 000000
2015-01-12 10:10:24,0.28,2.55,0.00,23.70,28.02,30.79,4.86,27.32,1025.42,2027.10,2462.71,2636.55,2856.41,350.05,349.65,11.60,0000 0000 0000 0000 000000
2015-01-12 10:15:25,0.28,2.56,0.00,23.67,28.02,30.81,4.79,27.02,1025.52,2027.09,2460.32,2634.69,2854.44,350.49,350.18,11.63,0000 0000 0000 0000 000000
2015-01-12 10:20:27,0.27,2.57,0.00,23.66,28.02,30.80,4.83,26.98,1025.84,2027.07,2457.98,2632.86,2852.50,349.71,349.55,11.66,0000 0000 0000 0000 000000
2015-01-12 10:25:28,0.26,2.58,0.00,23.72,28.02,30.79,4.80,26.94,1025.82,2027.10,2455.72,2631.17,2850.58,350.32,350.30,11.69,0000 0000 0000 0000 000000
2015-01-12 10:30:29,0.24,2.59,0.00,23.71,28.02,30.80,4.87,27.22,1025.80,2027.03,2453.45,2629.36,2848.70,349.91,349.89,11.72,0000 0000 0000 0000 000000
2015-01-12 10:35:30,0.28,2.59,0.00,23.70,28.01,30.80,4.75,26.90,1025.88,2027.06,2451.22,2627.61,2846.76,349.02,349.00,11.74,0000 0000 0000 0000 000000
2015-01-12 10:40:32,0.27,2.60,0.00,23.72,28.00,30.79,4.81,27.02,1025.87,2027.05,2448.92,2625.84,2844.85,350.28,350.29,11.77,0000 0000 0000 0000 000000
2015-01-12 10:45:33,0.26,2.61,0.00,23.71,28.00,30.80,4.85,27.03,1025.85,2027.03,2446.69,2624.12,2842.95,350.16,350.08,11.80,0000 0000 0000 0000 000000
2015-01-12 10:50:34,0.26,2.62,0.00,23.71,28.00,30.77,4.90,27.11,1025.89,2027.03,2444.45,2622.50,2841.04,349.91,349.81,11.83,0000 0000 0000 0000 000000
2015-01-12 10:55:36,0.26,2.63,0.00,23.72,28.00,30.79,4.83,26.95,1025.87,2027.07,2442.24,2620.80,2839.17,350.24,350.02,11.86,0000 0000 0000 0000 000000
2015-01-12 11:00:37,0.26,2.63,0.00,23.73,28.00,30.79,4.86,26.97,1025.83,2027.08,2440.06,2619.09,2837.32,350.22,350.31,11.89,0000 0000 0000 0000 000000
2015-01-12 11:05:38,0.29,2.64,0.00,23.70,28.00,30.80,4.78,27.05,1025.85,2027.19,2437.80,2617.37,2835.48,349.69,349.75,11.92,0000 0000 0000 0000 000000
2015-01-12 11:10:40,0.24,2.65,0.00,23.67,28.00,30.78,4.78,26.87,1025.88,2027.13,2435.51,2615.57,2833.53,350.31,350.32,11.95,0000 0000 0000 0000 000000
2015-01-12 11:15:41,0.30,2.66,0.00,23.72,28.00,30.77,4.80,27.02,1025.86,2027.11,2433.18,2613.76,2831.59,350.15,350.09,11.98,0000 0000 0000 0000 000000
2015-01-12 11:20:42,0.27,2.67,0.00,23.70,28.00,30.76,4.78,26.98,1025.87,2027.19,2431.01,2611.97,2829.60,349.41,349.36,12.01,0000 0000 0000 0000 000000
2015-01-12 11:25:43,0.26,2.67,0.00,23.69,28.00,30.77,4.92,27.08,1025.89,2027.09,2428.68,2610.14,2827.67,350.65,350.69,12.04,0000 0000 0000 0000 000000
2015-01-12 11:30:44,0.27,2.68,0.00,23.71,27.99,30.75,4.80,26.86,1025.89,2027.18,2426.43,2608.45,2825.81,349.58,349.59,12.07,0000 0000 0000 0000 000000
2015-01-12 11:35:46,0.28,2.69,0.00,23.74,27.99,30.75,4.79,27.07,1025.89,2027.18,2424.21,2606.65,2823.88,349.21,349.35,12.10,0000 0000 0000 0000 000000
2015-01-12 11:40:47,0.27,2.70,0.00,23.73,27.98,30.76,4.89,27.23,1025.91,2027.11,2421.80,2604.79,2821.88,350.12,350.10,12.12,0000 0000 0000 0000 000000
2015-01-12 11:45:48,0.25,2.70,0.00,23.71,27.98,30.75,4.79,26.96,1025.90,2027.09,2419.59,2603.05,2820.04,350.25,350.33,12.15,0000 0000 0000 0000 000000
2015-01-12 11:50:49,0.26,2.71,0.00,23.72,27.98,30.75,4.85,27.17,1025.90,2027.13,2417.42,2601.38,2818.17,350.45,350.43,12.18,0000 0000 0000 0000 000000
2015-01-12 11:55:51,0.27,2.72,0.00,23.71,27.98,30.75,4.84,27.12,1025.89,2027.08,2415.23,2599.60,2816.28,350.19,350.17,12.21,0000 0000 0000 0000 000000
2015-01-12 12:00:52,0.27,2.73,0.00,23.66,27.97,30.76,4.79,27.07,1025.89,2027.06,2413.00,2597.83,2814.49,349.85,349.60,12.24,0000 0000 0000 0000 000000
2015-01-12 12:05:53,0.26,2.74,0.00,23.74,27.97,30.75,4.82,27.13,1025.89,2027.06,2410.75,2596.09,2812.62,349.53,349.52,12.27,0000 0000 0000 0000 000000
2015-01-12 12:10:54,0.27,2.74,0.00,23.74,27.97,30.74,4.87,27.13,1025.90,2027.06,2408.51,2594.38,2810.77,350.35,350.18,12.30,0000 0000 0000 0000 000000
2015-01-12 12:15:56,0.26,2.75,0.00,23.69,27.97,30.76,4.79,27.05,1025.90,2027.08,2406.29,2592.67,2808.94,350.04,349.96,12.33,0000 0000 0000 0000 000000
2015-01-12 12:20:57,0.29,2.76,0.00,23.69,27.97,30.74,4.77,27.09,1026.03,2027.20,2404.12,2590.92,2807.07,350.47,350.67,12.36,0000 0000 0000 0000 000000
2015-01-12 12:25:58,0.25,2.77,0.00,23.70,27.97,30.75,4.84,27.00,1026.15,2027.18,2401.89,2589.15,2805.15,349.80,349.90,12.39,0000 0000 0000 0000 000000
2015-01-12 12:30:59,0.27,2.78,0.00,23.69,27.97,30.74,4.85,26.93,1025.98,2027.15,2399.66,2587.44,2803.29,350.08,350.26,12.42,0000 0000 0000 0000 000000
2015-01-12 12:36:01,0.28,2.78,0.00,23.73,27.97,30.73,4.74,26.91,1026.23,2027.19,2397.39,2585.70,2801.44,349.42,349.50,12.45,0000 0000 0000 0000 000000
2015-01-12 12:41:02,0.29,2.79,0.00,23.72,27.97,30.74,4.78,27.02,1026.22,2027.19,2395.04,2583.88,2799.53,350.41,350.51,12.48,0000 0000 0000 0000 000000
2015-01-12 12:46:04,0.30,2.80,0.00,23.70,27.97,30.74,4.87,27.10,1026.36,2027.30,2392.83,2582.13,2797.65,350.53,350.76,12.51,0000 0000 0000 0000 000000
2015-01-12 12:51:05,0.25,2.81,0.00,23.70,27.96,30.73,4.84,27.02,1026.29,2027.28,2390.59,2580.38,2795.72,350.20,350.32,12.53,0000 0000 0000 0000 000000
2015-01-12 12:56:06,0.26,2.82,0.00,23.73,27.95,30.73,4.83,27.02,1026.26,2027.15,2388.28,2578.57,2793.74,349.58,349.94,12.56,0000 0000 0000 0000 000000
2015-01-12 13:01:08,0.28,2.83,0.00,23.71,27.95,30.73,4.86,27.04,1026.26,2027.09,2385.96,2576.73,2791.82,350.38,350.38,12.59,0000 0000 0000 0000 000000